| time (UTC) | temp C | wind direction | speed KPH | gust KPH | rain 1hr cm | rain 24hr cm | rain mn cm | humidity % | barometer mb |
| 20260906113330 | 21 | 52 | 1.6 | 4.8 | 0.00 | 0.00 | 0.00 | 86 | 1018.3 |
| 20260906112831 | 21 | 60 | 4.8 | 4.8 | 0.00 | 0.00 | 0.00 | 86 | 1018.2 |
| 20260906112331 | 21 | 34 | 8.0 | 4.8 | 0.00 | 0.00 | 0.00 | 86 | 1018.2 |
| 20260906111831 | 22 | 57 | 8.0 | 4.8 | 0.00 | 0.00 | 0.00 | 86 | 1018.1 |
| 20260906111331 | 22 | 65 | 1.6 | 4.8 | 0.00 | 0.00 | 0.00 | 86 | 1018.1 |
| 20260906110831 | 22 | 50 | 3.2 | 4.8 | 0.00 | 0.00 | 0.00 | 86 | 1018.0 |
| 20260906110330 | 22 | 38 | 3.2 | 4.8 | 0.00 | 0.00 | 0.00 | 86 | 1018.1 |
| 20260906105831 | 22 | 62 | 4.8 | 4.8 | 0.00 | 0.00 | 0.00 | 86 | 1018.1 |
| 20260906105331 | 22 | 77 | 4.8 | 3.2 | 0.00 | 0.00 | 0.00 | 85 | 1018.0 |
| 20260906104831 | 22 | 70 | 11.3 | 3.2 | 0.00 | 0.00 | 0.00 | 85 | 1017.9 |
| 20260906104332 | 22 | 58 | 4.8 | 3.2 | 0.00 | 0.00 | 0.00 | 85 | 1017.9 |
| 20260906103831 | 22 | 55 | 3.2 | 3.2 | 0.00 | 0.00 | 0.00 | 85 | 1017.6 |
| 20260906103331 | 22 | 75 | 3.2 | 3.2 | 0.00 | 0.00 | 0.00 | 85 | 1017.5 |
| 20260906102831 | 22 | 89 | 3.2 | 3.2 | 0.00 | 0.00 | 0.00 | 85 | 1017.5 |
| 20260906102331 | 22 | 49 | 3.2 | 3.2 | 0.00 | 0.00 | 0.00 | 84 | 1017.5 |
| 20260906101831 | 22 | 68 | 1.6 | 4.8 | 0.00 | 0.00 | 0.00 | 84 | 1017.4 |
| 20260906101331 | 22 | 56 | 4.8 | 3.2 | 0.00 | 0.00 | 0.00 | 84 | 1017.5 |
| 20260906100831 | 22 | 34 | 3.2 | 3.2 | 0.00 | 0.00 | 0.00 | 84 | 1017.5 |
| 20260906100331 | 22 | 63 | 4.8 | 4.8 | 0.00 | 0.00 | 0.00 | 84 | 1017.5 |
| 20260906095831 | 22 | 72 | 3.2 | 3.2 | 0.00 | 0.00 | 0.00 | 84 | 1017.4 |
| 20260906095331 | 22 | 72 | 4.8 | 3.2 | 0.00 | 0.00 | 0.00 | 83 | 1017.4 |
| 20260906094831 | 22 | 68 | 3.2 | 3.2 | 0.00 | 0.00 | 0.00 | 83 | 1017.4 |
| 20260906094331 | 22 | 50 | 1.6 | 4.8 | 0.00 | 0.00 | 0.00 | 83 | 1017.4 |
| 20260906093832 | 22 | 24 | 3.2 | 4.8 | 0.00 | 0.00 | 0.00 | 83 | 1017.3 |
| 20260906093331 | 22 | 60 | 6.4 | 3.2 | 0.00 | 0.00 | 0.00 | 83 | 1017.3 |
| 20260906092832 | 22 | 41 | 1.6 | 3.2 | 0.00 | 0.00 | 0.00 | 83 | 1017.2 |
| 20260906092330 | 22 | 64 | 1.6 | 3.2 | 0.00 | 0.00 | 0.00 | 83 | 1017.4 |
| 20260906091831 | 23 | 49 | 1.6 | 3.2 | 0.00 | 0.00 | 0.00 | 83 | 1017.4 |
| 20260906091331 | 23 | 19 | 3.2 | 4.8 | 0.00 | 0.00 | 0.00 | 83 | 1017.3 |
| 20260906090831 | 23 | 74 | 6.4 | 3.2 | 0.00 | 0.00 | 0.00 | 83 | 1017.3 |
| 20260906090330 | 23 | 58 | 6.4 | 3.2 | 0.00 | 0.00 | 0.00 | 83 | 1017.2 |
| 20260906085831 | 23 | 48 | 3.2 | 4.8 | 0.00 | 0.00 | 0.00 | 83 | 1017.2 |
| 20260906085330 | 23 | 68 | 6.4 | 4.8 | 0.00 | 0.00 | 0.00 | 82 | 1017.2 |
| 20260906084831 | 23 | 60 | 3.2 | 3.2 | 0.00 | 0.00 | 0.00 | 83 | 1017.3 |
| 20260906084330 | 23 | 70 | 8.0 | 3.2 | 0.00 | 0.00 | 0.00 | 83 | 1017.3 |
| 20260906083831 | 22 | 70 | 1.6 | 4.8 | 0.00 | 0.00 | 0.00 | 83 | 1017.3 |
| 20260906083331 | 23 | 64 | 4.8 | 4.8 | 0.00 | 0.00 | 0.00 | 83 | 1017.3 |
| 20260906082831 | 23 | 68 | 4.8 | 4.8 | 0.00 | 0.00 | 0.00 | 83 | 1017.2 |
| 20260906082331 | 23 | 81 | 6.4 | 3.2 | 0.00 | 0.00 | 0.00 | 83 | 1017.2 |
| 20260906081831 | 23 | 47 | 1.6 | 3.2 | 0.00 | 0.00 | 0.00 | 83 | 1017.2 |
| 20260906081330 | 23 | 77 | 1.6 | 4.8 | 0.00 | 0.00 | 0.00 | 84 | 1017.2 |
| 20260906080833 | 23 | 73 | 4.8 | 4.8 | 0.00 | 0.00 | 0.00 | 84 | 1017.2 |
| 20260906080330 | 23 | 77 | 6.4 | 3.2 | 0.00 | 0.00 | 0.00 | 84 | 1017.2 |
| 20260906075831 | 23 | 0 | 0.0 | 3.2 | 0.00 | 0.00 | 0.00 | 84 | 1017.3 |
| 20260906075332 | 23 | 69 | 1.6 | 3.2 | 0.00 | 0.00 | 0.00 | 84 | 1017.2 |
| 20260906074831 | 23 | 44 | 6.4 | 3.2 | 0.00 | 0.00 | 0.00 | 84 | 1017.2 |
| 20260906074330 | 23 | 55 | 4.8 | 3.2 | 0.00 | 0.00 | 0.00 | 84 | 1017.2 |
| 20260906073831 | 23 | 0 | 0.0 | 4.8 | 0.00 | 0.00 | 0.00 | 84 | 1017.2 |
| 20260906073330 | 23 | 51 | 3.2 | 4.8 | 0.00 | 0.00 | 0.00 | 84 | 1017.2 |
| 20260906072831 | 23 | 1 | 3.2 | 4.8 | 0.00 | 0.00 | 0.00 | 84 | 1017.3 |
| 20260906072330 | 23 | 40 | 3.2 | 4.8 | 0.00 | 0.00 | 0.00 | 85 | 1017.3 |
| 20260906071832 | 23 | 50 | 6.4 | 6.4 | 0.00 | 0.00 | 0.00 | 85 | 1017.5 |
| 20260906071330 | 23 | 68 | 1.6 | 4.8 | 0.00 | 0.00 | 0.00 | 85 | 1017.5 |
| 20260906070831 | 23 | 49 | 1.6 | 3.2 | 0.00 | 0.00 | 0.00 | 85 | 1017.4 |
| 20260906070330 | 23 | 68 | 3.2 | 3.2 | 0.00 | 0.00 | 0.00 | 85 | 1017.4 |
| 20260906065831 | 23 | 76 | 3.2 | 1.6 | 0.00 | 0.00 | 0.00 | 85 | 1017.3 |
| 20260906065330 | 23 | 0 | 0.0 | 1.6 | 0.00 | 0.00 | 0.00 | 85 | 1017.4 |
| 20260906064831 | 23 | 67 | 3.2 | 3.2 | 0.00 | 0.00 | 0.00 | 85 | 1017.4 |
| 20260906064330 | 23 | 73 | 1.6 | 3.2 | 0.00 | 0.00 | 0.00 | 85 | 1017.4 |
| 20260906063831 | 23 | 4 | 4.8 | 3.2 | 0.00 | 0.00 | 0.00 | 85 | 1017.4 |
| 20260906063331 | 22 | 53 | 3.2 | 3.2 | 0.00 | 0.00 | 0.00 | 86 | 1017.4 |
| 20260906062831 | 22 | 64 | 3.2 | 3.2 | 0.00 | 0.00 | 0.00 | 86 | 1017.4 |
| 20260906062331 | 22 | 47 | 1.6 | 3.2 | 0.00 | 0.00 | 0.00 | 86 | 1017.3 |
| 20260906061831 | 22 | 72 | 3.2 | 3.2 | 0.00 | 0.00 | 0.00 | 87 | 1017.3 |
| 20260906061331 | 22 | 35 | 3.2 | 1.6 | 0.00 | 0.00 | 0.00 | 87 | 1017.4 |
| 20260906060831 | 22 | 337 | 3.2 | 1.6 | 0.00 | 0.00 | 0.00 | 87 | 1017.4 |
| 20260906060330 | 22 | 1 | 3.2 | 1.6 | 0.00 | 0.00 | 0.00 | 87 | 1017.4 |
| 20260906055831 | 22 | 61 | 1.6 | 1.6 | 0.00 | 0.00 | 0.00 | 87 | 1017.4 |
| 20260906055331 | 22 | 18 | 1.6 | 3.2 | 0.00 | 0.00 | 0.00 | 88 | 1017.4 |
| 20260906054831 | 22 | 56 | 3.2 | 3.2 | 0.00 | 0.00 | 0.00 | 88 | 1017.3 |
| 20260906054330 | 22 | 32 | 1.6 | 3.2 | 0.00 | 0.00 | 0.00 | 88 | 1017.3 |
| 20260906053831 | 22 | 354 | 8.0 | 3.2 | 0.00 | 0.00 | 0.00 | 88 | 1017.4 |
| 20260906053331 | 22 | 20 | 3.2 | 3.2 | 0.00 | 0.00 | 0.00 | 88 | 1017.4 |
| 20260906052831 | 22 | 65 | 3.2 | 4.8 | 0.00 | 0.00 | 0.00 | 88 | 1017.3 |
| 20260906052330 | 22 | 41 | 6.4 | 4.8 | 0.00 | 0.00 | 0.00 | 88 | 1017.1 |
| 20260906051831 | 22 | 28 | 4.8 | 3.2 | 0.00 | 0.00 | 0.00 | 88 | 1017.0 |
| 20260906051330 | 22 | 12 | 8.0 | 3.2 | 0.00 | 0.00 | 0.00 | 88 | 1016.9 |
| 20260906050831 | 22 | 0 | 0.0 | 3.2 | 0.00 | 0.00 | 0.00 | 88 | 1017.0 |
| 20260906050330 | 22 | 348 | 1.6 | 4.8 | 0.00 | 0.00 | 0.00 | 88 | 1017.0 |
| 20260906045830 | 22 | 38 | 1.6 | 4.8 | 0.00 | 0.00 | 0.00 | 88 | 1017.0 |
| 20260906045330 | 22 | 65 | 1.6 | 4.8 | 0.00 | 0.00 | 0.00 | 88 | 1017.0 |
| 20260906044831 | 22 | 57 | 4.8 | 4.8 | 0.00 | 0.00 | 0.00 | 88 | 1016.9 |
| 20260906044330 | 22 | 50 | 1.6 | 6.4 | 0.00 | 0.00 | 0.00 | 88 | 1016.8 |
| 20260906043832 | 22 | 41 | 14.5 | 6.4 | 0.00 | 0.00 | 0.00 | 88 | 1016.8 |
| 20260906043330 | 22 | 57 | 8.0 | 6.4 | 0.00 | 0.00 | 0.00 | 87 | 1016.7 |
| 20260906042831 | 22 | 39 | 3.2 | 6.4 | 0.00 | 0.00 | 0.00 | 88 | 1016.6 |
| 20260906042330 | 22 | 79 | 6.4 | 6.4 | 0.00 | 0.00 | 0.00 | 87 | 1016.5 |
| 20260906041830 | 22 | 52 | 6.4 | 4.8 | 0.00 | 0.00 | 0.00 | 87 | 1016.6 |
| 20260906041330 | 22 | 86 | 6.4 | 6.4 | 0.00 | 0.00 | 0.00 | 87 | 1016.6 |
| 20260906040831 | 22 | 341 | 4.8 | 6.4 | 0.00 | 0.00 | 0.00 | 87 | 1016.5 |
| 20260906040330 | 22 | 47 | 6.4 | 4.8 | 0.00 | 0.00 | 0.00 | 87 | 1016.5 |
| 20260906035831 | 22 | 360 | 8.0 | 4.8 | 0.00 | 0.00 | 0.00 | 87 | 1016.5 |
| 20260906035330 | 22 | 22 | 4.8 | 6.4 | 0.00 | 0.00 | 0.00 | 87 | 1016.5 |
| 20260906034831 | 22 | 11 | 6.4 | 6.4 | 0.00 | 0.00 | 0.00 | 87 | 1016.4 |
| 20260906034331 | 22 | 60 | 8.0 | 6.4 | 0.00 | 0.00 | 0.00 | 87 | 1016.4 |
| 20260906033830 | 23 | 56 | 4.8 | 6.4 | 0.00 | 0.00 | 0.00 | 87 | 1016.4 |
| 20260906033330 | 23 | 59 | 6.4 | 4.8 | 0.00 | 0.00 | 0.00 | 87 | 1016.4 |
| 20260906032830 | 23 | 56 | 3.2 | 4.8 | 0.00 | 0.00 | 0.00 | 86 | 1016.4 |
| 20260906032330 | 23 | 359 | 3.2 | 6.4 | 0.00 | 0.00 | 0.00 | 86 | 1016.4 |
| 20260906031830 | 23 | 70 | 4.8 | 6.4 | 0.00 | 0.00 | 0.00 | 86 | 1016.5 |
| 20260906031330 | 23 | 49 | 16.1 | 4.8 | 0.00 | 0.00 | 0.00 | 86 | 1016.4 |
| 20260906030831 | 23 | 18 | 4.8 | 4.8 | 0.00 | 0.00 | 0.00 | 86 | 1016.5 |
| 20260906030330 | 23 | 26 | 3.2 | 6.4 | 0.00 | 0.00 | 0.00 | 86 | 1016.4 |
| 20260906025831 | 23 | 359 | 4.8 | 6.4 | 0.00 | 0.00 | 0.00 | 86 | 1016.4 |
| 20260906025330 | 23 | 58 | 4.8 | 6.4 | 0.00 | 0.00 | 0.00 | 86 | 1016.3 |
| 20260906024830 | 23 | 350 | 9.7 | 6.4 | 0.00 | 0.00 | 0.00 | 85 | 1016.2 |
| 20260906024330 | 23 | 61 | 3.2 | 6.4 | 0.00 | 0.00 | 0.00 | 85 | 1016.2 |
| 20260906023830 | 23 | 359 | 6.4 | 6.4 | 0.00 | 0.00 | 0.00 | 85 | 1016.2 |
| 20260906023330 | 23 | 33 | 6.4 | 6.4 | 0.00 | 0.00 | 0.00 | 85 | 1016.2 |
| 20260906022831 | 23 | 359 | 6.4 | 6.4 | 0.00 | 0.00 | 0.00 | 85 | 1016.3 |
| 20260906022330 | 23 | 359 | 8.0 | 6.4 | 0.00 | 0.00 | 0.00 | 85 | 1016.3 |
| 20260906021831 | 23 | 51 | 8.0 | 6.4 | 0.00 | 0.00 | 0.00 | 85 | 1016.4 |
| 20260906021330 | 23 | 79 | 9.7 | 6.4 | 0.00 | 0.00 | 0.00 | 85 | 1016.5 |
| 20260906020831 | 23 | 64 | 9.7 | 4.8 | 0.00 | 0.00 | 0.00 | 84 | 1016.4 |
| 20260906020330 | 23 | 65 | 1.6 | 6.4 | 0.00 | 0.00 | 0.00 | 85 | 1016.5 |
| 20260906015831 | 23 | 56 | 3.2 | 6.4 | 0.00 | 0.00 | 0.00 | 84 | 1016.5 |
| 20260906015330 | 23 | 56 | 11.3 | 6.4 | 0.00 | 0.00 | 0.00 | 84 | 1016.4 |
| 20260906014830 | 23 | 27 | 1.6 | 6.4 | 0.00 | 0.00 | 0.00 | 84 | 1016.5 |
| 20260906014330 | 23 | 77 | 4.8 | 6.4 | 0.00 | 0.00 | 0.00 | 84 | 1016.5 |
| 20260906013831 | 23 | 7 | 8.0 | 6.4 | 0.00 | 0.00 | 0.00 | 84 | 1016.5 |
| 20260906013331 | 23 | 60 | 3.2 | 6.4 | 0.00 | 0.00 | 0.00 | 84 | 1016.5 |
| 20260906012831 | 23 | 66 | 3.2 | 4.8 | 0.00 | 0.00 | 0.00 | 85 | 1016.4 |
| 20260906012330 | 23 | 11 | 8.0 | 6.4 | 0.00 | 0.00 | 0.00 | 85 | 1016.4 |
| 20260906011830 | 23 | 31 | 3.2 | 6.4 | 0.00 | 0.00 | 0.00 | 85 | 1016.4 |
| 20260906011330 | 23 | 1 | 9.7 | 6.4 | 0.00 | 0.00 | 0.00 | 85 | 1016.3 |
| 20260906010831 | 23 | 4 | 4.8 | 6.4 | 0.00 | 0.00 | 0.00 | 85 | 1016.1 |
| 20260906010331 | 23 | 30 | 6.4 | 6.4 | 0.00 | 0.00 | 0.00 | 85 | 1016.1 |
| 20260906005832 | 23 | 19 | 8.0 | 6.4 | 0.00 | 0.00 | 0.00 | 85 | 1016.0 |
| 20260906005331 | 23 | 28 | 4.8 | 8.0 | 0.00 | 0.00 | 0.00 | 85 | 1015.8 |
| 20260906004831 | 23 | 20 | 4.8 | 6.4 | 0.00 | 0.00 | 0.00 | 85 | 1015.7 |
| 20260906004331 | 23 | 63 | 6.4 | 6.4 | 0.00 | 0.00 | 0.00 | 85 | 1015.7 |
| 20260906003831 | 23 | 48 | 6.4 | 6.4 | 0.00 | 0.00 | 0.00 | 85 | 1015.7 |
| 20260906003331 | 23 | 359 | 9.7 | 6.4 | 0.00 | 0.00 | 0.00 | 85 | 1015.7 |
| 20260906002831 | 23 | 35 | 3.2 | 6.4 | 0.00 | 0.00 | 0.00 | 85 | 1015.5 |
| 20260906002331 | 23 | 85 | 8.0 | 6.4 | 0.00 | 0.00 | 0.00 | 85 | 1015.7 |
| 20260906001831 | 23 | 356 | 11.3 | 6.4 | 0.00 | 0.00 | 0.00 | 85 | 1015.6 |
| 20260906001331 | 23 | 5 | 3.2 | 6.4 | 0.00 | 0.00 | 0.00 | 85 | 1015.6 |
| 20260906000831 | 23 | 23 | 6.4 | 6.4 | 0.00 | 0.00 | 0.00 | 85 | 1015.6 |
| 20260906000333 | 23 | 46 | 9.7 | 6.4 | 0.00 | 0.00 | 0.00 | 85 | 1015.6 |
| 20260905235831 | 23 | 44 | 6.4 | 6.4 | 0.00 | 0.00 | 0.00 | 85 | 1015.7 |
| 20260905235331 | 23 | 6 | 4.8 | 6.4 | 0.00 | 0.00 | 0.00 | 85 | 1015.6 |
| 20260905234831 | 23 | 67 | 4.8 | 8.0 | 0.00 | 0.00 | 0.00 | 85 | 1015.6 |
| 20260905234331 | 22 | 295 | 3.2 | 8.0 | 0.00 | 0.00 | 0.00 | 84 | 1015.7 |
| 20260905233831 | 22 | 13 | 6.4 | 8.0 | 0.00 | 0.00 | 0.00 | 84 | 1015.7 |
| 20260905233331 | 23 | 89 | 6.4 | 8.0 | 0.00 | 0.00 | 0.00 | 84 | 1015.7 |
| 20260905232831 | 23 | 55 | 9.7 | 6.4 | 0.00 | 0.00 | 0.00 | 84 | 1015.7 |
| 20260905232331 | 23 | 39 | 9.7 | 6.4 | 0.00 | 0.00 | 0.00 | 84 | 1015.7 |
| 20260905231831 | 23 | 350 | 4.8 | 6.4 | 0.00 | 0.00 | 0.00 | 84 | 1015.7 |
| 20260905231331 | 23 | 34 | 8.0 | 8.0 | 0.00 | 0.00 | 0.00 | 84 | 1015.5 |
| 20260905230831 | 23 | 83 | 6.4 | 8.0 | 0.00 | 0.00 | 0.00 | 84 | 1015.5 |
| 20260905230331 | 23 | 79 | 8.0 | 8.0 | 0.00 | 0.00 | 0.00 | 84 | 1015.5 |
| 20260905225831 | 23 | 17 | 12.9 | 6.4 | 0.00 | 0.00 | 0.00 | 84 | 1015.3 |
| 20260905225331 | 23 | 11 | 17.7 | 8.0 | 0.00 | 0.00 | 0.00 | 83 | 1015.4 |
| 20260905224831 | 23 | 29 | 9.7 | 9.7 | 0.00 | 0.00 | 0.00 | 82 | 1015.5 |
| 20260905224331 | 24 | 39 | 8.0 | 8.0 | 0.00 | 0.00 | 0.00 | 82 | 1015.6 |
| 20260905223831 | 24 | 30 | 22.5 | 6.4 | 0.00 | 0.00 | 0.00 | 82 | 1015.6 |
| 20260905223331 | 25 | 1 | 4.8 | 8.0 | 0.00 | 0.00 | 0.00 | 81 | 1015.5 |
| 20260905222831 | 25 | 30 | 6.4 | 8.0 | 0.00 | 0.00 | 0.00 | 81 | 1015.6 |
| 20260905222332 | 25 | 45 | 4.8 | 6.4 | 0.00 | 0.00 | 0.00 | 80 | 1015.4 |
| 20260905221831 | 25 | 360 | 3.2 | 6.4 | 0.00 | 0.00 | 0.00 | 80 | 1015.3 |
| 20260905221331 | 25 | 354 | 4.8 | 6.4 | 0.00 | 0.00 | 0.00 | 80 | 1015.2 |
| 20260905220831 | 25 | 360 | 1.6 | 8.0 | 0.00 | 0.00 | 0.00 | 80 | 1015.2 |
| 20260905220331 | 25 | 1 | 12.9 | 8.0 | 0.00 | 0.00 | 0.00 | 80 | 1015.2 |
| 20260905215831 | 25 | 8 | 8.0 | 8.0 | 0.00 | 0.00 | 0.00 | 79 | 1015.2 |
| 20260905215331 | 25 | 316 | 6.4 | 8.0 | 0.00 | 0.00 | 0.00 | 79 | 1015.1 |
| 20260905214832 | 25 | 351 | 8.0 | 8.0 | 0.00 | 0.00 | 0.00 | 79 | 1015.1 |
| 20260905214331 | 25 | 65 | 14.5 | 8.0 | 0.00 | 0.00 | 0.00 | 79 | 1015.0 |
| 20260905213832 | 26 | 9 | 12.9 | 8.0 | 0.00 | 0.00 | 0.00 | 79 | 1015.0 |
| 20260905213331 | 26 | 56 | 4.8 | 8.0 | 0.00 | 0.00 | 0.00 | 78 | 1014.9 |
| 20260905212831 | 26 | 352 | 8.0 | 8.0 | 0.00 | 0.00 | 0.00 | 78 | 1014.9 |
| 20260905212331 | 26 | 359 | 6.4 | 6.4 | 0.00 | 0.00 | 0.00 | 78 | 1014.9 |
| 20260905211831 | 26 | 31 | 3.2 | 6.4 | 0.00 | 0.00 | 0.00 | 78 | 1014.9 |
| 20260905211331 | 26 | 75 | 9.7 | 8.0 | 0.00 | 0.00 | 0.00 | 78 | 1014.9 |
| 20260905210831 | 26 | 39 | 6.4 | 8.0 | 0.00 | 0.00 | 0.00 | 78 | 1014.9 |
| 20260905210330 | 26 | 74 | 6.4 | 6.4 | 0.00 | 0.00 | 0.00 | 77 | 1015.0 |
| 20260905205831 | 26 | 326 | 8.0 | 8.0 | 0.00 | 0.00 | 0.00 | 78 | 1014.9 |
| 20260905205331 | 26 | 331 | 12.9 | 6.4 | 0.00 | 0.00 | 0.00 | 78 | 1015.0 |
| 20260905204832 | 26 | 360 | 6.4 | 8.0 | 0.00 | 0.00 | 0.00 | 78 | 1015.0 |
| 20260905204330 | 26 | 12 | 4.8 | 8.0 | 0.00 | 0.00 | 0.00 | 78 | 1015.0 |
| 20260905203832 | 26 | 35 | 8.0 | 9.7 | 0.00 | 0.00 | 0.00 | 77 | 1014.9 |
| 20260905203330 | 26 | 67 | 8.0 | 9.7 | 0.00 | 0.00 | 0.00 | 77 | 1015.0 |
| 20260905202831 | 26 | 58 | 9.7 | 9.7 | 0.00 | 0.00 | 0.00 | 77 | 1014.9 |
| 20260905202331 | 26 | 360 | 9.7 | 9.7 | 0.00 | 0.00 | 0.00 | 77 | 1014.9 |
| 20260905201831 | 26 | 3 | 11.3 | 8.0 | 0.00 | 0.00 | 0.00 | 76 | 1015.0 |
| 20260905201332 | 26 | 20 | 6.4 | 8.0 | 0.00 | 0.00 | 0.00 | 76 | 1015.0 |
| 20260905200831 | 26 | 67 | 4.8 | 8.0 | 0.00 | 0.00 | 0.00 | 76 | 1015.0 |
| 20260905200331 | 26 | 2 | 8.0 | 6.4 | 0.00 | 0.00 | 0.00 | 76 | 1015.0 |
| 20260905195831 | 26 | 345 | 8.0 | 8.0 | 0.00 | 0.00 | 0.00 | 76 | 1015.0 |
| 20260905195330 | 26 | 356 | 11.3 | 9.7 | 0.00 | 0.00 | 0.00 | 76 | 1015.1 |
| 20260905194831 | 26 | 96 | 9.7 | 9.7 | 0.00 | 0.00 | 0.00 | 75 | 1015.1 |
| 20260905194330 | 26 | 351 | 9.7 | 8.0 | 0.00 | 0.00 | 0.00 | 75 | 1015.1 |
| 20260905193831 | 26 | 29 | 4.8 | 8.0 | 0.00 | 0.00 | 0.00 | 75 | 1015.1 |
| 20260905193331 | 27 | 11 | 6.4 | 8.0 | 0.00 | 0.00 | 0.00 | 75 | 1015.1 |
| 20260905192831 | 27 | 34 | 6.4 | 9.7 | 0.00 | 0.00 | 0.00 | 76 | 1015.2 |
| 20260905192332 | 27 | 353 | 8.0 | 9.7 | 0.00 | 0.00 | 0.00 | 75 | 1015.3 |
| 20260905191831 | 26 | 1 | 9.7 | 9.7 | 0.00 | 0.00 | 0.00 | 76 | 1015.2 |
| 20260905191332 | 26 | 41 | 4.8 | 11.3 | 0.00 | 0.00 | 0.00 | 76 | 1015.3 |
| 20260905190831 | 26 | 293 | 16.1 | 11.3 | 0.00 | 0.00 | 0.00 | 76 | 1015.2 |
| 20260905190330 | 26 | 342 | 8.0 | 11.3 | 0.00 | 0.00 | 0.00 | 76 | 1015.3 |
| 20260905185831 | 26 | 1 | 8.0 | 8.0 | 0.00 | 0.00 | 0.00 | 76 | 1015.2 |
| 20260905185331 | 26 | 328 | 6.4 | 6.4 | 0.00 | 0.00 | 0.00 | 77 | 1015.3 |
| 20260905184832 | 26 | 65 | 4.8 | 8.0 | 0.00 | 0.00 | 0.00 | 78 | 1015.3 |
| 20260905184331 | 26 | 15 | 8.0 | 9.7 | 0.00 | 0.00 | 0.00 | 78 | 1015.3 |
| 20260905183831 | 26 | 319 | 12.9 | 9.7 | 0.00 | 0.00 | 0.00 | 77 | 1015.4 |
| 20260905183331 | 26 | 321 | 14.5 | 9.7 | 0.00 | 0.00 | 0.00 | 76 | 1015.4 |
| 20260905182831 | 27 | 311 | 9.7 | 6.4 | 0.00 | 0.00 | 0.00 | 76 | 1015.5 |
| 20260905182331 | 27 | 349 | 20.9 | 6.4 | 0.00 | 0.00 | 0.00 | 76 | 1015.4 |
| 20260905181831 | 26 | 53 | 8.0 | 8.0 | 0.00 | 0.00 | 0.00 | 77 | 1015.5 |
| 20260905181330 | 26 | 4 | 8.0 | 6.4 | 0.00 | 0.00 | 0.00 | 77 | 1015.4 |
| 20260905180831 | 26 | 15 | 8.0 | 8.0 | 0.00 | 0.00 | 0.00 | 77 | 1015.4 |
| 20260905180330 | 26 | 84 | 8.0 | 6.4 | 0.00 | 0.00 | 0.00 | 77 | 1015.3 |
| 20260905175831 | 26 | 334 | 17.7 | 6.4 | 0.00 | 0.00 | 0.00 | 77 | 1015.4 |
| 20260905175330 | 26 | 11 | 9.7 | 8.0 | 0.00 | 0.00 | 0.00 | 78 | 1015.2 |
| 20260905174831 | 26 | 119 | 3.2 | 6.4 | 0.00 | 0.00 | 0.00 | 78 | 1015.3 |
| 20260905174330 | 26 | 359 | 12.9 | 8.0 | 0.00 | 0.00 | 0.00 | 78 | 1015.3 |
| 20260905173831 | 26 | 335 | 8.0 | 8.0 | 0.00 | 0.00 | 0.00 | 79 | 1015.3 |
| 20260905173330 | 26 | 360 | 4.8 | 8.0 | 0.00 | 0.00 | 0.00 | 80 | 1015.2 |
| 20260905172831 | 26 | 25 | 3.2 | 8.0 | 0.00 | 0.00 | 0.00 | 80 | 1015.2 |
| 20260905172330 | 25 | 348 | 17.7 | 8.0 | 0.00 | 0.00 | 0.00 | 80 | 1015.3 |
| 20260905171831 | 26 | 57 | 8.0 | 8.0 | 0.00 | 0.00 | 0.00 | 80 | 1015.4 |
| 20260905171330 | 26 | 41 | 6.4 | 8.0 | 0.00 | 0.00 | 0.00 | 80 | 1015.3 |
| 20260905170831 | 26 | 39 | 16.1 | 8.0 | 0.00 | 0.00 | 0.00 | 79 | 1015.3 |
| 20260905170331 | 26 | 57 | 4.8 | 8.0 | 0.00 | 0.00 | 0.00 | 78 | 1015.4 |
| 20260905165831 | 26 | 331 | 16.1 | 8.0 | 0.00 | 0.00 | 0.00 | 78 | 1015.5 |
| 20260905165331 | 26 | 316 | 12.9 | 9.7 | 0.00 | 0.00 | 0.00 | 78 | 1015.4 |
| 20260905164831 | 26 | 12 | 8.0 | 9.7 | 0.00 | 0.00 | 0.00 | 77 | 1015.4 |
| 20260905164331 | 27 | 360 | 11.3 | 8.0 | 0.00 | 0.00 | 0.00 | 76 | 1015.4 |
| 20260905163831 | 27 | 54 | 3.2 | 8.0 | 0.00 | 0.00 | 0.00 | 76 | 1015.3 |
| 20260905163330 | 27 | 68 | 12.9 | 6.4 | 0.00 | 0.00 | 0.00 | 76 | 1015.3 |
| 20260905162831 | 27 | 7 | 4.8 | 6.4 | 0.00 | 0.00 | 0.00 | 75 | 1015.4 |
| 20260905162331 | 27 | 44 | 4.8 | 6.4 | 0.00 | 0.00 | 0.00 | 76 | 1015.4 |
| 20260905161831 | 27 | 328 | 4.8 | 6.4 | 0.00 | 0.00 | 0.00 | 76 | 1015.3 |
| 20260905161330 | 27 | 45 | 4.8 | 6.4 | 0.00 | 0.00 | 0.00 | 77 | 1015.2 |
| 20260905160831 | 27 | 72 | 3.2 | 6.4 | 0.00 | 0.00 | 0.00 | 77 | 1015.3 |
| 20260905160330 | 27 | 44 | 11.3 | 6.4 | 0.00 | 0.00 | 0.00 | 77 | 1015.2 |
| 20260905155831 | 27 | 58 | 4.8 | 6.4 | 0.00 | 0.00 | 0.00 | 76 | 1015.2 |
| 20260905155330 | 27 | 356 | 3.2 | 8.0 | 0.00 | 0.00 | 0.00 | 76 | 1015.1 |
| 20260905154831 | 27 | 359 | 6.4 | 8.0 | 0.00 | 0.00 | 0.00 | 76 | 1015.1 |
| 20260905154330 | 27 | 66 | 8.0 | 8.0 | 0.00 | 0.00 | 0.00 | 76 | 1015.1 |
| 20260905153831 | 27 | 11 | 8.0 | 8.0 | 0.00 | 0.00 | 0.00 | 76 | 1015.0 |
| 20260905153330 | 27 | 58 | 17.7 | 6.4 | 0.00 | 0.00 | 0.00 | 76 | 1014.9 |
| 20260905152831 | 27 | 72 | 4.8 | 6.4 | 0.00 | 0.00 | 0.00 | 76 | 1014.9 |
| 20260905152330 | 27 | 360 | 8.0 | 6.4 | 0.00 | 0.00 | 0.00 | 77 | 1015.0 |
| 20260905151831 | 27 | 37 | 6.4 | 6.4 | 0.00 | 0.00 | 0.00 | 77 | 1014.9 |
| 20260905151331 | 27 | 13 | 6.4 | 6.4 | 0.00 | 0.00 | 0.00 | 77 | 1014.8 |
| 20260905150831 | 27 | 17 | 3.2 | 6.4 | 0.00 | 0.00 | 0.00 | 77 | 1014.8 |
| 20260905150330 | 27 | 359 | 9.7 | 6.4 | 0.00 | 0.00 | 0.00 | 77 | 1014.8 |
| 20260905145831 | 27 | 30 | 3.2 | 6.4 | 0.00 | 0.00 | 0.00 | 77 | 1014.8 |
| 20260905145330 | 27 | 73 | 8.0 | 4.8 | 0.00 | 0.00 | 0.00 | 77 | 1014.8 |
| 20260905144831 | 27 | 356 | 4.8 | 4.8 | 0.00 | 0.00 | 0.00 | 78 | 1014.6 |
| 20260905144331 | 27 | 68 | 6.4 | 4.8 | 0.00 | 0.00 | 0.00 | 79 | 1014.7 |
| 20260905143831 | 26 | 3 | 4.8 | 6.4 | 0.00 | 0.00 | 0.00 | 80 | 1014.6 |
| 20260905143330 | 26 | 0 | 0.0 | 6.4 | 0.00 | 0.00 | 0.00 | 81 | 1014.6 |
| 20260905142830 | 26 | 38 | 3.2 | 4.8 | 0.00 | 0.00 | 0.00 | 82 | 1014.6 |
| 20260905142330 | 26 | 56 | 4.8 | 4.8 | 0.00 | 0.00 | 0.00 | 82 | 1014.5 |
| 20260905141831 | 26 | 359 | 1.6 | 6.4 | 0.00 | 0.00 | 0.00 | 83 | 1014.5 |
| 20260905141330 | 26 | 338 | 6.4 | 6.4 | 0.00 | 0.00 | 0.00 | 84 | 1014.5 |
| 20260905140830 | 26 | 38 | 8.0 | 6.4 | 0.00 | 0.00 | 0.00 | 85 | 1014.4 |
| 20260905140330 | 26 | 30 | 6.4 | 6.4 | 0.00 | 0.00 | 0.00 | 86 | 1014.4 |
| 20260905135831 | 25 | 1 | 4.8 | 4.8 | 0.00 | 0.00 | 0.00 | 87 | 1014.4 |
| 20260905135330 | 25 | 36 | 3.2 | 4.8 | 0.00 | 0.00 | 0.00 | 88 | 1014.5 |
| 20260905134831 | 25 | 56 | 1.6 | 4.8 | 0.00 | 0.00 | 0.00 | 89 | 1014.5 |
| 20260905134330 | 25 | 1 | 6.4 | 4.8 | 0.00 | 0.00 | 0.00 | 90 | 1014.6 |
| 20260905133832 | 25 | 41 | 3.2 | 4.8 | 0.00 | 0.00 | 0.00 | 91 | 1014.6 |
| 20260905133330 | 24 | 0 | 0.0 | 4.8 | 0.00 | 0.00 | 0.00 | 91 | 1014.8 |
| 20260905132831 | 24 | 39 | 1.6 | 4.8 | 0.00 | 0.00 | 0.00 | 91 | 1014.9 |
| 20260905132331 | 24 | 337 | 8.0 | 4.8 | 0.00 | 0.00 | 0.00 | 92 | 1014.6 |
| 20260905131830 | 24 | 37 | 3.2 | 6.4 | 0.00 | 0.00 | 0.00 | 92 | 1014.4 |
| 20260905131330 | 24 | 1 | 3.2 | 4.8 | 0.00 | 0.00 | 0.00 | 92 | 1014.4 |
| 20260905130830 | 23 | 12 | 3.2 | 4.8 | 0.00 | 0.00 | 0.00 | 92 | 1014.4 |
| 20260905130330 | 23 | 58 | 8.0 | 4.8 | 0.00 | 0.00 | 0.00 | 92 | 1014.3 |
| 20260905125831 | 23 | 12 | 1.6 | 4.8 | 0.00 | 0.00 | 0.00 | 93 | 1014.2 |
| 20260905125330 | 23 | 1 | 8.0 | 4.8 | 0.00 | 0.00 | 0.00 | 92 | 1014.1 |
| 20260905124831 | 23 | 309 | 6.4 | 3.2 | 0.00 | 0.00 | 0.00 | 92 | 1014.0 |
| 20260905124330 | 23 | 68 | 1.6 | 3.2 | 0.00 | 0.00 | 0.00 | 92 | 1014.0 |
| 20260905123830 | 23 | 339 | 3.2 | 4.8 | 0.00 | 0.00 | 0.00 | 92 | 1014.0 |
| 20260905123330 | 23 | 319 | 4.8 | 4.8 | 0.00 | 0.00 | 0.00 | 92 | 1013.8 |
| 20260905122832 | 23 | 358 | 4.8 | 3.2 | 0.00 | 0.00 | 0.00 | 92 | 1013.7 |
| 20260905122330 | 23 | 318 | 3.2 | 3.2 | 0.00 | 0.00 | 0.00 | 92 | 1013.7 |
| 20260905121830 | 23 | 311 | 3.2 | 3.2 | 0.00 | 0.00 | 0.00 | 92 | 1013.7 |
| 20260905121330 | 23 | 316 | 6.4 | 4.8 | 0.00 | 0.00 | 0.00 | 92 | 1013.6 |
| 20260905120831 | 23 | 352 | 1.6 | 3.2 | 0.00 | 0.00 | 0.00 | 92 | 1013.7 |
| 20260905120330 | 23 | 360 | 3.2 | 3.2 | 0.00 | 0.00 | 0.00 | 92 | 1013.5 |
| 20260905115831 | 23 | 311 | 3.2 | 3.2 | 0.00 | 0.00 | 0.00 | 91 | 1013.3 |
| 20260905115330 | 23 | 339 | 3.2 | 3.2 | 0.00 | 0.00 | 0.00 | 91 | 1013.2 |
| 20260905114831 | 23 | 44 | 4.8 | 3.2 | 0.00 | 0.00 | 0.00 | 91 | 1013.2 |
| 20260905114330 | 23 | 65 | 1.6 | 3.2 | 0.00 | 0.00 | 0.00 | 91 | 1013.1 |
| 20260905113832 | 23 | 1 | 3.2 | 4.8 | 0.00 | 0.00 | 0.00 | 91 | 1013.0 |